Location: Kumla
(59.1265°N, 15.1401°E)
Time: 15:27:05
(UTC+01:00)

Vanguard 1 Rocket - Pass Details

Date: 07 December 2023
Orbit: 654 x 4218 km, 34.3° (Epoch: 21 February)

Event Time Altitude Azimuth Distance (km) Brightness Sun altitude
Exits shadow 03:27:32 - 202° (SSW) 7,975 11.9 -37.3°
Reaches altitude 10° 03:33:43 10° 192° (SSW) 7,024 11.6 -36.6°
Maximum altitude 03:46:23 19° 157° (SSE) 5,401 11.3 -35.0°
Drops below altitude 10° 03:55:56 10° 120° (ESE) 5,170 11.7 -33.8°
Sets 04:00:48 0° 104° (ESE) 5,595 12.3 -33.2°
